Regional Weather Roundup
Issued by NWS Charleston, WV

Home | Current Version | Previous Version | Graphics & Text | Print | Product List | Glossary On
Versions: 1 2 3 4 5 6 7 8 9 10 11 12 13 14 15 16 17 18 19 20 21 22 23 24 25 26 27 28 29 30 31 32 33 34 35 36 37 38 39 40 41 42 43 44 45 46 47 48 49 50
000
ASUS41 KRLX 011310
RWRRLX
West Virginia Regional Weather Roundup
National Weather Service Charleston WV
800 AM EST WED MAR 01 2017

Note: "fair" indicates few or no clouds below 12,000 feet with no
significant weather and/or obstructions to visibility.

WVZ003-011400-
Northern Panhandle of West Virginia

CITY           SKY/WX    TMP DP  RH WIND       PRES   REMARKS
WHEELING       CLOUDY    57  52  83 NW25G36   29.60R
$$

WVZ009-011400-
Northwest West Virginia

CITY           SKY/WX    TMP DP  RH WIND       PRES   REMARKS
PARKERSBURG    CLOUDY    58  55  90 S12       29.63F
$$

WVZ006-011400-
Western West Virginia

CITY           SKY/WX    TMP DP  RH WIND       PRES   REMARKS
HUNTINGTON     CLOUDY    67  56  67 S13G24    29.63F
$$

WVZ015-011400-
West Central West Virginia

CITY           SKY/WX    TMP DP  RH WIND       PRES   REMARKS
CHARLESTON     CLOUDY    67  54  63 S16G25    29.69F
$$

WVZ022-031-011400-
North Central West Virginia

CITY           SKY/WX    TMP DP  RH WIND       PRES   REMARKS
CLARKSBURG     HVY RAIN  59  55  87 SW18G29   29.71R FOG
MORGANTOWN     RAIN      59  57  93 S6        29.70S FOG
$$

WVZ025-035-042-045-011400-
Southern West Virginia

CITY           SKY/WX    TMP DP  RH WIND       PRES   REMARKS
BECKLEY        CLOUDY    62  51  67 SW21G33   29.81F
LOGAN          PTSUNNY   64  55  72 S10G17    29.77S
BLUEFIELD      SUNNY     60  49  66 SW18G36   29.86F
LEWISBURG      MOSUNNY   50  49  95 CALM      29.83F
$$

WVZ047-011400-
Northern Mountains of West Virginia

CITY           SKY/WX    TMP DP  RH WIND       PRES   REMARKS
ELKINS         CLOUDY    65  51  60 SW21G33   29.73F
$$

WVZ052-011400-
Eastern Panhandle of West Virginia

CITY           SKY/WX    TMP DP  RH WIND       PRES   REMARKS
MARTINSBURG    CLOUDY    53  51  93 SE6       29.71F FOG
PETERSBURG     CLOUDY    64  55  72 S10       29.68F
$$



USA.gov is the U.S. government's official web portal to all federal, state and local government web resources and services.